Location: ????????
(54.6123°N, 39.2099°E)
Time: 02:24:00
(UTC+00:00)

SeaSat 1 - Pass Details

Date: 19 May 2025
Orbit: 738 x 740 km, 108.0° (Epoch: 14 June)

Event Time Altitude Azimuth Distance (km) Brightness Sun altitude
Exits shadow 19:57:03 16° 189° (S) 1,879 4.0 -13.4°
Maximum altitude 20:00:27 35° 248° (WSW) 1,185 3.5 -13.5°
Drops below altitude 10° 20:04:57 10° 314° (NW) 2,261 6.0 -13.7°
Sets 20:07:25 0° 323° (NW) 3,189 7.2 -13.8°
